Location: Derby
(52.9213°N, 1.4761°W)
Time: 17:58:20
(UTC+01:00)

Tiros 1 - Pass Details

Date: 20 May 2025
Orbit: 620 x 651 km, 48.4° (Epoch: 13 June)

Event Time Altitude Azimuth Distance (km) Brightness Sun altitude
Rises 00:58:33 0° 273° (W) 2,928 10.6 -17.1°
Enters shadow 01:02:18 10° 242° (WSW) 2,051 9.4 -17.1°
Reaches altitude 10° 01:02:31 10° 239° (WSW) 2,024 - -17.1°
Maximum altitude 01:03:56 11° 221° (SW) 1,940 - -17.1°
Drops below altitude 10° 01:05:21 10° 203° (SSW) 2,026 - -17.1°
Sets 01:09:21 0° 170° (S) 2,939 - -17.1°
